Marco Polo — C6JZ7 — position and weather

sailwx.info

Track history (hours):
 
Tides and Currents Weather Stations Pressure Air Temp Water Temp Dewpoint Dewpoint Depression Visibility Wind Speed Wind Dir Waves Ship Positions

Marco Polo

Operator: Orient Lines

Last reported at 2019-Oct-15 04:17 UTC. Time now 2019-Oct-17 07:48 UTC.
Position N 62°03' W 006°39'.

Type: Ship. MMSI: 308691456.

Date/timePositionNaut miles runAvg speedWind from/ knotsBaromVisibWave heightAir tempDewpointWater temp
2019-Oct-15 04:17N 62°03' W 006°39'411.1
2019-Oct-15 03:53N 62°01' W 006°31'411.6
2019-Oct-15 03:30N 61°57' W 006°25'611.7
2019-Oct-15 03:00N 61°53' W 006°16'27911.6
2019-Oct-14 02:57N 57°50' W 001°41'612.8
2019-Oct-14 02:30N 57°45' W 001°39'612.4
2019-Oct-14 02:00N 57°39' W 001°37'611.9
2019-Oct-14 01:30N 57°33' W 001°33'611.8
2019-Oct-14 01:01N 57°28' W 001°31'611.7
2019-Oct-14 00:31N 57°22' W 001°28'711.8
2019-Oct-13 23:57N 57°16' W 001°24'20113.2
2019-Oct-13 08:42N 54°06' E 000°36'1014.2
2019-Oct-13 07:59N 53°57' E 000°42'1114.0
2019-Oct-13 07:14N 53°47' E 000°47'2312.3
2019-Oct-13 05:23N 53°26' E 001°04'411.3
2019-Oct-13 05:00N 53°23' E 001°07'611.9
2019-Oct-13 04:30N 53°18' E 001°13'612.2
2019-Oct-13 04:00N 53°13' E 001°20'713.1
2019-Oct-13 03:30N 53°09' E 001°28'713.8
2019-Oct-13 03:00N 53°04' E 001°36'714.2
2019-Oct-13 02:31N 52°60' E 001°46'714.7
2019-Oct-13 02:01N 52°57' E 001°57'714.4
2019-Oct-13 01:31N 52°53' E 002°07'714.7
2019-Oct-13 01:00N 52°46' E 002°12'714.0
2019-Oct-13 00:31N 52°39' E 002°11'714.1
2019-Oct-13 00:00N 52°32' E 002°08'713.5
2019-Oct-12 23:30N 52°26' E 002°04'613.0
2019-Oct-12 23:00N 52°20' E 002°01'612.3
2019-Oct-12 22:30N 52°14' E 001°58'612.1
2019-Oct-12 22:00N 52°08' E 001°55'611.3
2019-Oct-12 21:30N 52°03' E 001°52'510.8
2019-Oct-12 21:00N 51°58' E 001°49'611.0
2019-Oct-12 20:30N 51°52' E 001°47'4 7.1
2019-Oct-12 20:00N 51°50' E 001°43'5 9.9
2019-Oct-12 19:30N 51°51' E 001°35'510.5
2019-Oct-12 19:00N 51°46' E 001°32'612.0
2019-Oct-12 18:30N 51°41' E 001°27'612.3
2019-Oct-12 18:00N 51°37' E 001°19'613.0
2019-Oct-12 17:30N 51°33' E 001°10'713.9
2019-Oct-12 17:00N 51°30' E 001°01'713.5
2019-Oct-12 16:31N 51°29' E 000°50'714.6
2019-Oct-12 16:00N 51°30' E 000°38'713.7
2019-Oct-12 15:30N 51°29' E 000°28'4 8.1
2019-Oct-12 15:00N 51°27' E 000°22'0 0.0
2019-Oct-12 14:30N 51°27' E 000°22'0 0.0
2019-Oct-12 13:57N 51°27' E 000°22'0 0.0
2019-Oct-12 13:30N 51°27' E 000°22'0 0.0
2019-Oct-12 13:00N 51°27' E 000°22'0 0.0
2019-Oct-12 12:30N 51°27' E 000°22'0 0.0
2019-Oct-12 12:00N 51°27' E 000°22'0 0.0
2019-Oct-12 11:30N 51°27' E 000°22'0 0.0
2019-Oct-12 11:00N 51°27' E 000°22'0 0.0
2019-Oct-12 10:30N 51°27' E 000°22'0 0.0
2019-Oct-12 10:00N 51°27' E 000°22'0 0.0
2019-Oct-12 09:30N 51°27' E 000°22'0 0.0
2019-Oct-12 09:00N 51°27' E 000°22'0 0.0
2019-Oct-12 08:30N 51°27' E 000°22'0 0.0
2019-Oct-12 08:00N 51°27' E 000°22'0 0.0
2019-Oct-12 07:30N 51°27' E 000°22'0 0.0
2019-Oct-12 07:00N 51°27' E 000°22'1 1.6
2019-Oct-12 06:31N 51°27' E 000°23'4 7.1
2019-Oct-12 06:01N 51°29' E 000°28'611.7
2019-Oct-12 05:31N 51°30' E 000°37'714.3
2019-Oct-12 05:01N 51°29' E 000°48'713.9
2019-Oct-12 04:31N 51°30' E 000°59'714.6
2019-Oct-12 04:01N 51°33' E 001°10'714.3
2019-Oct-12 03:31N 51°37' E 001°19'714.6
2019-Oct-12 03:00N 51°42' E 001°27'714.2
2019-Oct-12 02:30N 51°48' E 001°35'510.2
2019-Oct-12 02:01N 51°51' E 001°41'510.7
2019-Oct-12 01:30N 51°50' E 001°50'5 9.9
2019-Oct-12 01:00N 51°51' E 001°58'510.5
2019-Oct-12 00:30N 51°53' E 002°05'610.8
2019-Oct-11 23:55N 51°55' E 002°15'610.8
2019-Oct-11 23:24N 51°57' E 002°23'4 8.7
2019-Oct-11 22:55N 51°57' E 002°30'511.8
2019-Oct-11 22:28N 51°52' E 002°27'3911.3
2019-Oct-11 19:00N 52°21' E 003°10'711.2
2019-Oct-11 18:25N 52°26' E 003°16'511.0
2019-Oct-11 17:58N 52°30' E 003°21'510.2
2019-Oct-11 17:27N 52°34' E 003°27'510.3
2019-Oct-11 17:00N 52°38' E 003°31'610.1
2019-Oct-11 16:23N 52°43' E 003°38'71 9.7
2019-Oct-11 09:04N 53°34' E 004°59'110.9
2019-Oct-11 08:59N 53°34' E 005°01'610.6
2019-Oct-11 08:25N 53°36' E 005°10'410.5
2019-Oct-11 08:00N 53°38' E 005°17'510.6
2019-Oct-11 07:29N 53°39' E 005°26'47 9.4
2019-Oct-11 02:32N 53°53' E 006°41'0 9.9
2019-Oct-11 02:29N 53°53' E 006°42'610.2
2019-Oct-11 01:53N 53°54' E 006°52'410.5
2019-Oct-11 01:30N 53°55' E 006°59'510.4
2019-Oct-11 01:00N 53°56' E 007°07'510.2
2019-Oct-11 00:30N 53°57' E 007°16'610.3
2019-Oct-10 23:57N 53°58' E 007°25'12 9.8
2019-Oct-10 22:42N 54°02' E 007°46'310.1
2019-Oct-10 22:26N 54°02' E 007°50'4 9.7
2019-Oct-10 21:59N 54°01' E 007°57'510.4
2019-Oct-10 21:29N 54°01' E 008°06'610.8
2019-Oct-10 20:57N 54°00' E 008°16'511.0
2019-Oct-10 20:28N 53°59' E 008°25'612.4
2019-Oct-10 20:00N 53°58' E 008°34'611.5
2019-Oct-10 19:30N 53°54' E 008°42'611.9
2019-Oct-10 19:00N 53°50' E 008°49'914.4
2019-Oct-10 18:24N 53°52' E 009°04'3 7.4
2019-Oct-10 17:58N 53°54' E 009°09'0 0.0
2019-Oct-10 17:28N 53°54' E 009°09'0 0.0
2019-Oct-10 17:00N 53°54' E 009°09'0 0.5
2019-Oct-10 16:30N 53°54' E 009°09'3 5.6
2019-Oct-10 16:00N 53°56' E 009°12'4 8.1
2019-Oct-10 15:30N 53°59' E 009°17'4 7.9
2019-Oct-10 15:00N 54°03' E 009°18'4 8.0
2019-Oct-10 14:30N 54°07' E 009°20'4 7.4
2019-Oct-10 14:00N 54°10' E 009°24'4 8.0
2019-Oct-10 13:30N 54°11' E 009°30'4 7.9
2019-Oct-10 13:00N 54°13' E 009°36'3 6.4
2019-Oct-10 12:30N 54°16' E 009°38'3 6.0
2019-Oct-10 12:00N 54°18' E 009°42'3 6.4
2019-Oct-10 11:30N 54°21' E 009°45'4 7.6
2019-Oct-10 11:00N 54°22' E 009°51'4 7.3
2019-Oct-10 10:30N 54°21' E 009°57'3 5.1
2019-Oct-10 10:00N 54°22' E 010°01'4 7.0
2019-Oct-10 09:30N 54°22' E 010°07'1 1.6
2019-Oct-10 09:00N 54°22' E 010°08'0 0.0
2019-Oct-10 08:30N 54°22' E 010°08'0 0.0
2019-Oct-10 08:00N 54°22' E 010°08'1 2.5
2019-Oct-10 07:30N 54°22' E 010°11'5 9.0
2019-Oct-10 07:00N 54°26' E 010°14'510.2
2019-Oct-10 06:30N 54°30' E 010°19'510.9
2019-Oct-10 06:00N 54°33' E 010°28'612.8
2019-Oct-10 05:30N 54°35' E 010°38'612.8
2019-Oct-10 05:00N 54°35' E 010°49'4 8.2
2019-Oct-10 04:30N 54°36' E 010°56'5 9.2
2019-Oct-10 04:00N 54°36' E 011°04'4 8.8
2019-Oct-10 03:30N 54°36' E 011°11'4 8.9
2019-Oct-10 03:00N 54°34' E 011°18'4 8.8
2019-Oct-10 02:30N 54°32' E 011°25'4 9.0
2019-Oct-10 02:00N 54°30' E 011°32'5 9.1
2019-Oct-10 01:30N 54°28' E 011°40'6 8.4
2019-Oct-10 00:46N 54°26' E 011°50'2 7.4
2019-Oct-10 00:29N 54°26' E 011°53'11 7.3
2019-Oct-09 22:55N 54°28' E 012°12'3 8.1
2019-Oct-09 22:30N 54°32' E 012°14'4 8.4
2019-Oct-09 22:00N 54°36' E 012°15'5 7.9
2019-Oct-09 21:24N 54°39' E 012°21'3 7.7
2019-Oct-09 21:00N 54°41' E 012°25'4 7.6
2019-Oct-09 20:30N 54°43' E 012°31'193 7.5
2019-Oct-08 18:57N 54°58' E 018°04'510.2
2019-Oct-08 18:30N 54°58' E 018°12'510.1
2019-Oct-08 18:00N 54°58' E 018°21'510.4
2019-Oct-08 17:30N 54°59' E 018°30'510.6
2019-Oct-08 17:00N 54°58' E 018°39'510.5
2019-Oct-08 16:30N 54°55' E 018°46'510.7
2019-Oct-08 16:00N 54°51' E 018°52'612.5
2019-Oct-08 15:30N 54°46' E 018°60'713.8
2019-Oct-08 15:00N 54°39' E 018°57'714.4
2019-Oct-08 14:30N 54°33' E 018°50'713.9
2019-Oct-08 14:00N 54°28' E 018°42'3 6.4
2019-Oct-08 13:30N 54°25' E 018°39'1 2.7
2019-Oct-08 13:00N 54°24' E 018°40'0 0.0
2019-Oct-08 12:30N 54°24' E 018°40'0 0.0
2019-Oct-08 12:00N 54°24' E 018°40'0 0.0
2019-Oct-08 11:30N 54°24' E 018°40'0 0.0
2019-Oct-08 11:00N 54°24' E 018°40'0 0.0
2019-Oct-08 10:30N 54°24' E 018°40'0 0.0
2019-Oct-08 10:00N 54°24' E 018°40'0 0.0
2019-Oct-08 09:30N 54°24' E 018°40'0 0.0
2019-Oct-08 09:00N 54°24' E 018°40'0 0.0
2019-Oct-08 08:30N 54°24' E 018°40'0 0.0
2019-Oct-08 08:00N 54°24' E 018°40'0 0.0
2019-Oct-08 07:30N 54°24' E 018°40'0 0.0
2019-Oct-08 07:00N 54°24' E 018°40'0 0.0
2019-Oct-08 06:30N 54°24' E 018°40'0 0.0
2019-Oct-08 06:00N 54°24' E 018°40'0 0.0
2019-Oct-08 05:31N 54°24' E 018°40'0 0.0
2019-Oct-08 05:00N 54°24' E 018°40'0 0.0
2019-Oct-08 04:30N 54°24' E 018°40'0 0.0
2019-Oct-08 04:01N 54°24' E 018°40'0 0.0
2019-Oct-08 03:31N 54°24' E 018°40'0 0.9
2019-Oct-08 03:01N 54°25' E 018°40'4 7.4
2019-Oct-08 02:30N 54°28' E 018°42'611.6
2019-Oct-08 02:00N 54°32' E 018°48'612.6
2019-Oct-08 01:31N 54°38' E 018°55'510.5
2019-Oct-08 01:00N 54°42' E 018°58'4 8.6
2019-Oct-08 00:30N 54°46' E 019°01'4 8.1
2019-Oct-08 00:00N 54°50' E 019°04'4 7.9
2019-Oct-07 23:30N 54°54' E 019°07'4 8.2
2019-Oct-07 23:00N 54°57' E 019°10'4 8.3
2019-Oct-07 22:30N 55°01' E 019°13'66 9.3
2019-Oct-07 15:25N 55°40' E 020°46'614.1
2019-Oct-07 15:00N 55°42' E 020°56'510.6
2019-Oct-07 14:30N 55°44' E 021°05'2 3.7
2019-Oct-07 13:59N 55°42' E 021°07'0 0.0
2019-Oct-07 13:29N 55°42' E 021°07'0 0.0
2019-Oct-07 12:56N 55°42' E 021°07'0 0.0
2019-Oct-07 12:29N 55°42' E 021°07'0 0.0
2019-Oct-07 11:56N 55°42' E 021°07'0 0.0
2019-Oct-07 11:29N 55°42' E 021°07'0 0.0
2019-Oct-07 10:59N 55°42' E 021°07'0 0.0
2019-Oct-07 10:26N 55°42' E 021°07'0 0.0
2019-Oct-07 09:56N 55°42' E 021°07'0 0.0
2019-Oct-07 09:29N 55°42' E 021°07'0 0.0
2019-Oct-07 08:59N 55°42' E 021°07'0 0.0
2019-Oct-07 08:29N 55°42' E 021°07'0 0.0
2019-Oct-07 07:47N 55°42' E 021°07'0 0.0
2019-Oct-07 07:29N 55°42' E 021°07'0 0.0
2019-Oct-07 06:59N 55°42' E 021°07'0 0.0
2019-Oct-07 06:29N 55°42' E 021°07'0 0.1
2019-Oct-07 06:00N 55°42' E 021°07'1 2.8
2019-Oct-07 05:31N 55°43' E 021°06'5 8.9
2019-Oct-07 04:57N 55°45' E 020°57'  
Track history (hours):
 
Tides and Currents Weather Stations Pressure Air Temp Water Temp Dewpoint Dewpoint Depression Visibility Wind Speed Wind Dir Waves Ship Positions

Marco Polo

Operator: Orient Lines

Last reported at 2019-Oct-15 04:17 UTC. Time now 2019-Oct-17 07:48 UTC.
Position N 62°03' W 006°39'.

Type: Ship. MMSI: 308691456.

Date/timePositionNaut miles runAvg speedWind from/ knotsBaromVisibWave heightAir tempDewpointWater temp
2019-Oct-15 04:17N 62°03' W 006°39'411.1
2019-Oct-15 03:53N 62°01' W 006°31'411.6
2019-Oct-15 03:30N 61°57' W 006°25'611.7
2019-Oct-15 03:00N 61°53' W 006°16'27911.6
2019-Oct-14 02:57N 57°50' W 001°41'612.8
2019-Oct-14 02:30N 57°45' W 001°39'612.4
2019-Oct-14 02:00N 57°39' W 001°37'611.9
2019-Oct-14 01:30N 57°33' W 001°33'611.8
2019-Oct-14 01:01N 57°28' W 001°31'611.7
2019-Oct-14 00:31N 57°22' W 001°28'711.8
2019-Oct-13 23:57N 57°16' W 001°24'20113.2
2019-Oct-13 08:42N 54°06' E 000°36'1014.2
2019-Oct-13 07:59N 53°57' E 000°42'1114.0
2019-Oct-13 07:14N 53°47' E 000°47'2312.3
2019-Oct-13 05:23N 53°26' E 001°04'411.3
2019-Oct-13 05:00N 53°23' E 001°07'611.9
2019-Oct-13 04:30N 53°18' E 001°13'612.2
2019-Oct-13 04:00N 53°13' E 001°20'713.1
2019-Oct-13 03:30N 53°09' E 001°28'713.8
2019-Oct-13 03:00N 53°04' E 001°36'714.2
2019-Oct-13 02:31N 52°60' E 001°46'714.7
2019-Oct-13 02:01N 52°57' E 001°57'714.4
2019-Oct-13 01:31N 52°53' E 002°07'714.7
2019-Oct-13 01:00N 52°46' E 002°12'714.0
2019-Oct-13 00:31N 52°39' E 002°11'714.1
2019-Oct-13 00:00N 52°32' E 002°08'713.5
2019-Oct-12 23:30N 52°26' E 002°04'613.0
2019-Oct-12 23:00N 52°20' E 002°01'612.3
2019-Oct-12 22:30N 52°14' E 001°58'612.1
2019-Oct-12 22:00N 52°08' E 001°55'611.3
2019-Oct-12 21:30N 52°03' E 001°52'510.8
2019-Oct-12 21:00N 51°58' E 001°49'611.0
2019-Oct-12 20:30N 51°52' E 001°47'4 7.1
2019-Oct-12 20:00N 51°50' E 001°43'5 9.9
2019-Oct-12 19:30N 51°51' E 001°35'510.5
2019-Oct-12 19:00N 51°46' E 001°32'612.0
2019-Oct-12 18:30N 51°41' E 001°27'612.3
2019-Oct-12 18:00N 51°37' E 001°19'613.0
2019-Oct-12 17:30N 51°33' E 001°10'713.9
2019-Oct-12 17:00N 51°30' E 001°01'713.5
2019-Oct-12 16:31N 51°29' E 000°50'714.6
2019-Oct-12 16:00N 51°30' E 000°38'713.7
2019-Oct-12 15:30N 51°29' E 000°28'4 8.1
2019-Oct-12 15:00N 51°27' E 000°22'0 0.0
2019-Oct-12 14:30N 51°27' E 000°22'0 0.0
2019-Oct-12 13:57N 51°27' E 000°22'0 0.0
2019-Oct-12 13:30N 51°27' E 000°22'0 0.0
2019-Oct-12 13:00N 51°27' E 000°22'0 0.0
2019-Oct-12 12:30N 51°27' E 000°22'0 0.0
2019-Oct-12 12:00N 51°27' E 000°22'0 0.0
2019-Oct-12 11:30N 51°27' E 000°22'0 0.0
2019-Oct-12 11:00N 51°27' E 000°22'0 0.0
2019-Oct-12 10:30N 51°27' E 000°22'0 0.0
2019-Oct-12 10:00N 51°27' E 000°22'0 0.0
2019-Oct-12 09:30N 51°27' E 000°22'0 0.0
2019-Oct-12 09:00N 51°27' E 000°22'0 0.0
2019-Oct-12 08:30N 51°27' E 000°22'0 0.0
2019-Oct-12 08:00N 51°27' E 000°22'0 0.0
2019-Oct-12 07:30N 51°27' E 000°22'0 0.0
2019-Oct-12 07:00N 51°27' E 000°22'1 1.6
2019-Oct-12 06:31N 51°27' E 000°23'4 7.1
2019-Oct-12 06:01N 51°29' E 000°28'611.7
2019-Oct-12 05:31N 51°30' E 000°37'714.3
2019-Oct-12 05:01N 51°29' E 000°48'713.9
2019-Oct-12 04:31N 51°30' E 000°59'714.6
2019-Oct-12 04:01N 51°33' E 001°10'714.3
2019-Oct-12 03:31N 51°37' E 001°19'714.6
2019-Oct-12 03:00N 51°42' E 001°27'714.2
2019-Oct-12 02:30N 51°48' E 001°35'510.2
2019-Oct-12 02:01N 51°51' E 001°41'510.7
2019-Oct-12 01:30N 51°50' E 001°50'5 9.9
2019-Oct-12 01:00N 51°51' E 001°58'510.5
2019-Oct-12 00:30N 51°53' E 002°05'610.8
2019-Oct-11 23:55N 51°55' E 002°15'610.8
2019-Oct-11 23:24N 51°57' E 002°23'4 8.7
2019-Oct-11 22:55N 51°57' E 002°30'511.8
2019-Oct-11 22:28N 51°52' E 002°27'3911.3
2019-Oct-11 19:00N 52°21' E 003°10'711.2
2019-Oct-11 18:25N 52°26' E 003°16'511.0
2019-Oct-11 17:58N 52°30' E 003°21'510.2
2019-Oct-11 17:27N 52°34' E 003°27'510.3
2019-Oct-11 17:00N 52°38' E 003°31'610.1
2019-Oct-11 16:23N 52°43' E 003°38'71 9.7
2019-Oct-11 09:04N 53°34' E 004°59'110.9
2019-Oct-11 08:59N 53°34' E 005°01'610.6
2019-Oct-11 08:25N 53°36' E 005°10'410.5
2019-Oct-11 08:00N 53°38' E 005°17'510.6
2019-Oct-11 07:29N 53°39' E 005°26'47 9.4
2019-Oct-11 02:32N 53°53' E 006°41'0 9.9
2019-Oct-11 02:29N 53°53' E 006°42'610.2
2019-Oct-11 01:53N 53°54' E 006°52'410.5
2019-Oct-11 01:30N 53°55' E 006°59'510.4
2019-Oct-11 01:00N 53°56' E 007°07'510.2
2019-Oct-11 00:30N 53°57' E 007°16'610.3
2019-Oct-10 23:57N 53°58' E 007°25'12 9.8
2019-Oct-10 22:42N 54°02' E 007°46'310.1
2019-Oct-10 22:26N 54°02' E 007°50'4 9.7
2019-Oct-10 21:59N 54°01' E 007°57'510.4
2019-Oct-10 21:29N 54°01' E 008°06'610.8
2019-Oct-10 20:57N 54°00' E 008°16'511.0
2019-Oct-10 20:28N 53°59' E 008°25'612.4
2019-Oct-10 20:00N 53°58' E 008°34'611.5
2019-Oct-10 19:30N 53°54' E 008°42'611.9
2019-Oct-10 19:00N 53°50' E 008°49'914.4
2019-Oct-10 18:24N 53°52' E 009°04'3 7.4
2019-Oct-10 17:58N 53°54' E 009°09'0 0.0
2019-Oct-10 17:28N 53°54' E 009°09'0 0.0
2019-Oct-10 17:00N 53°54' E 009°09'0 0.5
2019-Oct-10 16:30N 53°54' E 009°09'3 5.6
2019-Oct-10 16:00N 53°56' E 009°12'4 8.1
2019-Oct-10 15:30N 53°59' E 009°17'4 7.9
2019-Oct-10 15:00N 54°03' E 009°18'4 8.0
2019-Oct-10 14:30N 54°07' E 009°20'4 7.4
2019-Oct-10 14:00N 54°10' E 009°24'4 8.0
2019-Oct-10 13:30N 54°11' E 009°30'4 7.9
2019-Oct-10 13:00N 54°13' E 009°36'3 6.4
2019-Oct-10 12:30N 54°16' E 009°38'3 6.0
2019-Oct-10 12:00N 54°18' E 009°42'3 6.4
2019-Oct-10 11:30N 54°21' E 009°45'4 7.6
2019-Oct-10 11:00N 54°22' E 009°51'4 7.3
2019-Oct-10 10:30N 54°21' E 009°57'3 5.1
2019-Oct-10 10:00N 54°22' E 010°01'4 7.0
2019-Oct-10 09:30N 54°22' E 010°07'1 1.6
2019-Oct-10 09:00N 54°22' E 010°08'0 0.0
2019-Oct-10 08:30N 54°22' E 010°08'0 0.0
2019-Oct-10 08:00N 54°22' E 010°08'1 2.5
2019-Oct-10 07:30N 54°22' E 010°11'5 9.0
2019-Oct-10 07:00N 54°26' E 010°14'510.2
2019-Oct-10 06:30N 54°30' E 010°19'510.9
2019-Oct-10 06:00N 54°33' E 010°28'612.8
2019-Oct-10 05:30N 54°35' E 010°38'612.8
2019-Oct-10 05:00N 54°35' E 010°49'4 8.2
2019-Oct-10 04:30N 54°36' E 010°56'5 9.2
2019-Oct-10 04:00N 54°36' E 011°04'4 8.8
2019-Oct-10 03:30N 54°36' E 011°11'4 8.9
2019-Oct-10 03:00N 54°34' E 011°18'4 8.8
2019-Oct-10 02:30N 54°32' E 011°25'4 9.0
2019-Oct-10 02:00N 54°30' E 011°32'5 9.1
2019-Oct-10 01:30N 54°28' E 011°40'6 8.4
2019-Oct-10 00:46N 54°26' E 011°50'2 7.4
2019-Oct-10 00:29N 54°26' E 011°53'11 7.3
2019-Oct-09 22:55N 54°28' E 012°12'3 8.1
2019-Oct-09 22:30N 54°32' E 012°14'4 8.4
2019-Oct-09 22:00N 54°36' E 012°15'5 7.9
2019-Oct-09 21:24N 54°39' E 012°21'3 7.7
2019-Oct-09 21:00N 54°41' E 012°25'4 7.6
2019-Oct-09 20:30N 54°43' E 012°31'193 7.5
2019-Oct-08 18:57N 54°58' E 018°04'510.2
2019-Oct-08 18:30N 54°58' E 018°12'510.1
2019-Oct-08 18:00N 54°58' E 018°21'510.4
2019-Oct-08 17:30N 54°59' E 018°30'510.6
2019-Oct-08 17:00N 54°58' E 018°39'510.5
2019-Oct-08 16:30N 54°55' E 018°46'510.7
2019-Oct-08 16:00N 54°51' E 018°52'612.5
2019-Oct-08 15:30N 54°46' E 018°60'713.8
2019-Oct-08 15:00N 54°39' E 018°57'714.4
2019-Oct-08 14:30N 54°33' E 018°50'713.9
2019-Oct-08 14:00N 54°28' E 018°42'3 6.4
2019-Oct-08 13:30N 54°25' E 018°39'1 2.7
2019-Oct-08 13:00N 54°24' E 018°40'0 0.0
2019-Oct-08 12:30N 54°24' E 018°40'0 0.0
2019-Oct-08 12:00N 54°24' E 018°40'0 0.0
2019-Oct-08 11:30N 54°24' E 018°40'0 0.0
2019-Oct-08 11:00N 54°24' E 018°40'0 0.0
2019-Oct-08 10:30N 54°24' E 018°40'0 0.0
2019-Oct-08 10:00N 54°24' E 018°40'0 0.0
2019-Oct-08 09:30N 54°24' E 018°40'0 0.0
2019-Oct-08 09:00N 54°24' E 018°40'0 0.0
2019-Oct-08 08:30N 54°24' E 018°40'0 0.0
2019-Oct-08 08:00N 54°24' E 018°40'0 0.0
2019-Oct-08 07:30N 54°24' E 018°40'0 0.0
2019-Oct-08 07:00N 54°24' E 018°40'0 0.0
2019-Oct-08 06:30N 54°24' E 018°40'0 0.0
2019-Oct-08 06:00N 54°24' E 018°40'0 0.0
2019-Oct-08 05:31N 54°24' E 018°40'0 0.0
2019-Oct-08 05:00N 54°24' E 018°40'0 0.0
2019-Oct-08 04:30N 54°24' E 018°40'0 0.0
2019-Oct-08 04:01N 54°24' E 018°40'0 0.0
2019-Oct-08 03:31N 54°24' E 018°40'0 0.9
2019-Oct-08 03:01N 54°25' E 018°40'4 7.4
2019-Oct-08 02:30N 54°28' E 018°42'611.6
2019-Oct-08 02:00N 54°32' E 018°48'612.6
2019-Oct-08 01:31N 54°38' E 018°55'510.5
2019-Oct-08 01:00N 54°42' E 018°58'4 8.6
2019-Oct-08 00:30N 54°46' E 019°01'4 8.1
2019-Oct-08 00:00N 54°50' E 019°04'4 7.9
2019-Oct-07 23:30N 54°54' E 019°07'4 8.2
2019-Oct-07 23:00N 54°57' E 019°10'4 8.3
2019-Oct-07 22:30N 55°01' E 019°13'66 9.3
2019-Oct-07 15:25N 55°40' E 020°46'614.1
2019-Oct-07 15:00N 55°42' E 020°56'510.6
2019-Oct-07 14:30N 55°44' E 021°05'2 3.7
2019-Oct-07 13:59N 55°42' E 021°07'0 0.0
2019-Oct-07 13:29N 55°42' E 021°07'0 0.0
2019-Oct-07 12:56N 55°42' E 021°07'0 0.0
2019-Oct-07 12:29N 55°42' E 021°07'0 0.0
2019-Oct-07 11:56N 55°42' E 021°07'0 0.0
2019-Oct-07 11:29N 55°42' E 021°07'0 0.0
2019-Oct-07 10:59N 55°42' E 021°07'0 0.0
2019-Oct-07 10:26N 55°42' E 021°07'0 0.0
2019-Oct-07 09:56N 55°42' E 021°07'0 0.0
2019-Oct-07 09:29N 55°42' E 021°07'0 0.0
2019-Oct-07 08:59N 55°42' E 021°07'0 0.0
2019-Oct-07 08:29N 55°42' E 021°07'0 0.0
2019-Oct-07 07:47N 55°42' E 021°07'0 0.0
2019-Oct-07 07:29N 55°42' E 021°07'0 0.0
2019-Oct-07 06:59N 55°42' E 021°07'0 0.0
2019-Oct-07 06:29N 55°42' E 021°07'0 0.1
2019-Oct-07 06:00N 55°42' E 021°07'1 2.8
2019-Oct-07 05:31N 55°43' E 021°06'5 8.9
2019-Oct-07 04:57N 55°45' E 020°57'  

Dump ship's entire track history